KE2HEH Weather Reports


Display with metric or nautical units.
time (UTC)temp
F
wind
direction
speed
MPH
gust
MPH
rain 1hr
in
rain 24hr
in
rain mn
in
humidity
%
barometer
mb
20260502152340 53 208 4.0 4.0 0.00 0.01 0.01 86 1012.7
20260502151838 53 206 4.0 6.0 0.00 0.01 0.01 86 1012.8
20260502151334 53 210 3.0 4.0 0.00 0.01 0.01 86 1012.8
20260502150832 53 208 2.0 4.0 0.00 0.01 0.01 86 1012.9
20260502150328 53 208 5.0 6.0 0.00 0.01 0.01 86 1012.8
20260502130716 53 223 3.0 3.0 0.00 0.01 0.01 91 1013.0
20260502130214 52 202 1.0 1.0 0.00 0.01 0.01 92 1013.2
20260502123700 52 230 2.0 3.0 0.00 0.01 0.01 93 1012.8
20260502123156 52 213 0.0 1.0 0.00 0.01 0.01 93 1012.9
20260502122653 52 214 1.0 2.0 0.00 0.01 0.01 93 1012.9
20260502122149 51 212 0.0 1.0 0.00 0.01 0.01 93 1013.0
20260502121648 51 217 2.0 4.0 0.00 0.01 0.01 93 1013.1
20260502121145 51 229 1.0 2.0 0.00 0.01 0.01 93 1013.0
20260502120641 52 214 0.0 1.0 0.00 0.01 0.01 93 1013.0
20260502120138 51 212 1.0 4.0 0.00 0.01 0.01 93 1013.0
20260502115636 51 214 3.0 4.0 0.00 0.01 0.01 93 1013.0
20260502115131 51 211 2.0 4.0 0.00 0.01 0.01 93 1013.0
20260502114627 51 212 2.0 4.0 0.00 0.01 0.01 93 1013.2
20260502114126 51 214 3.0 4.0 0.00 0.01 0.01 93 1013.1
20260502113623 51 218 4.0 6.0 0.00 0.01 0.01 93 1013.0
20260502113121 51 221 2.0 4.0 0.00 0.01 0.01 93 1013.1
20260502112619 51 203 3.0 7.0 0.00 0.01 0.01 93 1013.1
20260502112115 51 216 4.0 6.0 0.00 0.01 0.01 93 1012.7
20260502111613 51 208 5.0 8.0 0.00 0.01 0.01 93 1012.6
20260502111110 51 212 6.0 7.0 0.00 0.01 0.01 93 1012.7
20260502110608 51 206 5.0 7.0 0.00 0.01 0.01 92 1012.6
20260502110105 51 210 4.0 6.0 0.00 0.01 0.01 92 1012.3
20260502105603 51 213 6.0 8.0 0.00 0.01 0.01 92 1012.5
20260502105100 51 207 5.0 7.0 0.00 0.01 0.01 92 1012.3
20260502104556 51 220 2.0 6.0 0.00 0.01 0.01 92 1012.2
20260502104054 51 206 4.0 6.0 0.05 0.01 0.01 91 1012.3
20260502103552 51 213 1.0 3.0 0.05 0.01 0.01 91 1012.3
20260502103050 51 214 1.0 4.0 0.00 0.00 0.00 91 1012.5
20260502102545 51 216 3.0 6.0 0.00 0.00 0.00 91 1012.5
20260502102043 51 209 4.0 7.0 0.00 0.00 0.00 90 1012.7
20260502101541 51 213 3.0 4.0 0.00 0.00 0.00 90 1012.6
20260502101039 51 216 3.0 6.0 0.00 0.00 0.00 90 1012.6
20260502100537 51 214 3.0 7.0 0.00 0.00 0.00 90 1012.6
20260502091512 51 215 7.0 11.0 0.00 0.00 0.00 90 1012.2
20260502091009 51 208 8.0 10.0 0.00 0.00 0.00 90 1012.4
20260502090506 51 209 6.0 10.0 0.00 0.00 0.00 89 1012.4
20260502071400 50 215 8.0 10.0 0.00 0.00 0.00 92 1012.7
20260502070859 50 228 8.0 10.0 0.00 0.00 0.00 92 1012.6
20260502070356 51 195 6.0 9.0 0.00 0.00 0.00 93 1012.8
20260502065855 51 225 6.0 8.0 0.00 0.00 0.00 93 1012.9
20260502065352 51 210 6.0 10.0 0.00 0.00 0.00 93 1012.8
20260502064850 51 217 8.0 13.0 0.00 0.00 0.00 92 1012.9
20260502064348 51 218 4.0 9.0 0.00 0.00 0.00 92 1012.9
20260502063845 51 203 8.0 14.0 0.00 0.00 0.00 92 1012.9
20260502063343 51 212 8.0 13.0 0.00 0.00 0.00 92 1012.7
20260502062840 51 220 7.0 14.0 0.00 0.00 0.00 92 1013.0
20260502062337 51 213 11.0 16.0 0.00 0.00 0.00 92 1013.0
20260502061836 51 218 13.0 16.0 0.00 0.00 0.00 92 1012.7
20260502061333 51 219 13.0 16.0 0.00 0.00 0.00 91 1013.1
20260502060829 51 206 10.0 16.0 0.00 0.00 0.00 91 1013.2
20260502060324 51 224 9.0 17.0 0.00 0.00 0.00 91 1013.0
20260502055822 51 210 15.0 18.0 0.00 0.00 0.00 90 1012.8
20260502055320 51 253 8.0 14.0 0.00 0.00 0.00 90 1013.1
20260502054819 51 212 5.0 11.0 0.00 0.00 0.00 90 1013.1
20260502054316 51 210 7.0 13.0 0.00 0.00 0.00 89 1012.9
20260502053814 51 219 6.0 11.0 0.00 0.00 0.00 89 1012.8
20260502053311 51 232 11.0 13.0 0.00 0.00 0.00 89 1012.8
20260502052809 51 224 11.0 14.0 0.00 0.00 0.00 88 1012.5
20260502052306 51 220 7.0 11.0 0.00 0.00 0.00 88 1012.7
20260502051804 52 208 6.0 7.0 0.00 0.00 0.00 87 1012.8
20260502051302 52 214 5.0 7.0 0.00 0.00 0.00 87 1012.9
20260502050758 52 214 4.0 7.0 0.00 0.00 0.00 87 1012.8
20260502050254 52 209 5.0 9.0 0.00 0.00 0.00 86 1013.0
20260502045752 51 218 5.0 10.0 0.00 0.00 0.00 86 1012.9
20260502045248 51 212 7.0 11.0 0.00 0.00 0.00 85 1012.8
20260502044745 51 211 13.0 16.0 0.00 0.00 0.00 85 1012.7
20260502044241 52 201 13.0 15.0 0.00 0.00 0.00 85 1013.0
20260502043739 52 201 9.0 11.0 0.00 0.00 0.00 85 1012.8
20260502043236 52 207 8.0 10.0 0.00 0.00 0.00 85 1012.9
20260502042736 52 206 10.0 11.0 0.00 0.00 0.00 85 1012.6
20260502042233 52 217 9.0 15.0 0.00 0.00 0.00 84 1012.8
20260502041731 52 197 11.0 14.0 0.00 0.00 0.00 84 1012.7
20260502041228 52 204 13.0 16.0 0.00 0.00 0.00 84 1012.8
20260502040725 52 200 15.0 18.0 0.00 0.00 0.00 84 1013.1
20260502040222 52 192 15.0 18.0 0.00 0.00 0.00 83 1013.1
20260502035718 52 208 17.0 21.0 0.00 0.00 0.00 83 1012.9
20260502035215 52 202 16.0 18.0 0.00 0.00 0.00 83 1012.8
20260502034712 52 197 17.0 21.0 0.00 0.00 0.00 82 1012.9
20260502034210 52 208 15.0 19.0 0.00 0.00 0.00 81 1013.0
20260502033708 52 207 17.0 19.0 0.00 0.00 0.00 81 1012.7
20260502033206 52 204 16.0 19.0 0.00 0.00 0.00 81 1012.9
20260502032702 52 189 18.0 22.0 0.00 0.00 0.00 81 1012.6
20260502032158 52 220 18.0 22.0 0.00 0.00 0.00 81 1012.7
20260502031656 52 204 16.0 23.0 0.00 0.00 0.00 81 1012.7
20260502031154 52 202 17.0 21.0 0.00 0.00 0.00 81 1013.0
20260502030652 52 222 17.0 22.0 0.00 0.00 0.00 81 1013.0
20260502030150 52 227 15.0 21.0 0.00 0.00 0.00 81 1013.1
20260502025647 52 219 18.0 23.0 0.00 0.00 0.00 82 1013.1
20260502025145 52 199 16.0 21.0 0.00 0.00 0.00 83 1013.2
20260502024642 52 201 19.0 22.0 0.00 0.00 0.00 84 1013.2
20260502024140 52 202 21.0 23.0 0.00 0.00 0.00 84 1013.3
20260502023638 52 199 18.0 23.0 0.00 0.00 0.00 85 1013.0
20260502023135 51 206 19.0 22.0 0.00 0.00 0.00 85 1013.0
20260502022632 51 208 15.0 23.0 0.00 0.00 0.00 86 1013.1
20260502022129 51 191 12.0 21.0 0.00 0.00 0.00 86 1013.1
20260502021626 51 203 14.0 22.0 0.00 0.00 0.00 86 1013.0
20260502021123 51 224 12.0 22.0 0.00 0.00 0.00 86 1013.1
20260502020621 51 178 14.0 24.0 0.00 0.00 0.00 86 1013.1
20260502020117 51 191 15.0 21.0 0.00 0.00 0.00 86 1013.1
20260502015615 51 202 14.0 23.0 0.00 0.00 0.00 86 1013.0
20260502015112 51 227 13.0 23.0 0.00 0.00 0.00 86 1013.2
20260502014609 51 195 18.0 24.0 0.00 0.00 0.00 86 1013.1
20260502014106 51 222 10.0 24.0 0.00 0.00 0.00 86 1013.0
20260502013601 51 197 16.0 23.0 0.00 0.00 0.00 86 1012.9
20260502013057 51 231 12.0 22.0 0.00 0.00 0.00 86 1013.2
20260502012555 51 220 12.0 22.0 0.00 0.00 0.00 86 1012.9
20260502012053 51 194 15.0 21.0 0.00 0.00 0.00 86 1012.8
20260502011549 51 204 15.0 24.0 0.00 0.00 0.00 85 1012.8
20260502011045 51 190 18.0 25.0 0.00 0.00 0.00 85 1012.8
20260502010543 51 223 14.0 19.0 0.00 0.00 0.00 85 1012.7
20260502010039 51 196 15.0 21.0 0.00 0.00 0.00 84 1012.7
20260502005537 51 219 11.0 22.0 0.00 0.00 0.00 84 1012.6
20260502005035 52 210 17.0 22.0 0.00 0.00 0.00 83 1012.7
20260502004530 52 213 21.0 24.0 0.00 0.00 0.00 82 1012.8
20260502004027 52 208 17.0 21.0 0.00 0.00 0.00 81 1012.9
20260502003525 52 196 11.0 19.0 0.00 0.00 0.00 81 1012.6
20260502003021 52 177 10.0 19.0 0.00 0.00 0.00 81 1012.9
20260502002518 52 184 17.0 22.0 0.00 0.00 0.00 81 1012.9
20260502002016 52 186 21.0 24.0 0.00 0.00 0.00 82 1012.7
20260502001513 52 194 12.0 17.0 0.00 0.00 0.00 83 1012.6
20260502001010 52 211 13.0 18.0 0.00 0.00 0.00 83 1012.6
20260502000509 52 208 13.0 18.0 0.00 0.00 0.00 83 1012.4
20260502000005 52 210 11.0 18.0 0.00 0.00 0.00 83 1012.3
20260501235501 52 189 12.0 16.0 0.00 0.00 0.00 83 1012.4
20260501234955 52 195 12.0 18.0 0.00 0.00 0.00 83 1012.1
20260501234452 52 188 14.0 16.0 0.00 0.00 0.00 84 1012.2
20260501233951 52 210 13.0 18.0 0.00 0.00 0.00 83 1012.3
20260501233449 52 159 13.0 18.0 0.00 0.00 0.00 83 1012.2
20260501232944 52 225 12.0 17.0 0.00 0.00 0.00 83 1012.4
20260501232442 52 208 10.0 17.0 0.00 0.00 0.00 82 1012.3
20260501231938 52 220 10.0 18.0 0.00 0.00 0.00 82 1012.3
20260501231437 52 174 15.0 18.0 0.00 0.00 0.00 81 1012.3
20260501230935 53 210 11.0 18.0 0.00 0.00 0.00 81 1012.1
20260501230434 53 202 14.0 19.0 0.00 0.00 0.00 81 1012.1
20260501225930 53 205 12.0 18.0 0.00 0.00 0.00 80 1012.1
20260501225428 53 200 10.0 15.0 0.00 0.00 0.00 80 1011.9
20260501224924 53 180 9.0 18.0 0.00 0.00 0.00 80 1012.0
20260501224421 53 180 11.0 17.0 0.00 0.00 0.00 80 1012.2
20260501223918 53 199 13.0 18.0 0.00 0.00 0.00 80 1012.0
20260501223414 53 181 16.0 17.0 0.00 0.00 0.00 79 1011.9
20260501222910 53 172 13.0 17.0 0.00 0.00 0.00 79 1012.2
20260501222408 53 213 13.0 19.0 0.00 0.00 0.00 79 1012.4
20260501221904 53 214 7.0 21.0 0.00 0.00 0.00 79 1012.2
20260501221401 53 200 14.0 18.0 0.00 0.00 0.00 78 1012.1
20260501220859 53 192 12.0 17.0 0.00 0.00 0.00 78 1012.4
20260501220356 53 192 12.0 17.0 0.00 0.00 0.00 78 1012.2
20260501215852 53 190 12.0 17.0 0.00 0.00 0.00 78 1012.2
20260501215349 53 168 14.0 22.0 0.00 0.00 0.00 78 1012.3
20260501214844 53 191 13.0 19.0 0.00 0.00 0.00 78 1012.3
20260501214340 53 206 16.0 18.0 0.00 0.00 0.00 77 1012.3
20260501213836 53 179 13.0 19.0 0.00 0.00 0.00 78 1012.4
20260501213333 53 175 12.0 19.0 0.00 0.00 0.00 78 1012.2
20260501212828 53 197 12.0 17.0 0.00 0.00 0.00 77 1012.0
20260501212325 54 181 15.0 21.0 0.00 0.00 0.00 77 1012.3
20260501211823 53 197 12.0 18.0 0.00 0.00 0.00 76 1012.2
20260501211320 53 196 11.0 19.0 0.00 0.00 0.00 75 1012.2
20260501210817 54 183 11.0 22.0 0.00 0.00 0.00 75 1012.4
20260501210314 54 203 9.0 22.0 0.00 0.00 0.00 75 1012.4
20260501205810 54 184 12.0 21.0 0.00 0.00 0.00 74 1012.3
20260501205307 54 157 15.0 24.0 0.00 0.00 0.00 73 1012.1
20260501204804 54 202 18.0 22.0 0.00 0.00 0.00 71 1012.2
20260501204300 54 187 14.0 22.0 0.00 0.00 0.00 71 1012.2
20260501203756 54 159 15.0 24.0 0.00 0.00 0.00 69 1012.3
20260501203254 53 174 19.0 26.0 0.00 0.00 0.00 69 1012.3
20260501202751 54 194 17.0 22.0 0.00 0.00 0.00 68 1012.3
20260501202248 54 201 19.0 26.0 0.00 0.00 0.00 70 1012.1
20260501201745 54 229 14.0 27.0 0.00 0.00 0.00 70 1012.1
20260501201241 55 206 13.0 19.0 0.00 0.00 0.00 70 1012.1
20260501200738 55 226 14.0 19.0 0.00 0.00 0.00 68 1011.9
20260501200235 55 203 11.0 21.0 0.00 0.00 0.00 70 1012.1
20260501195733 55 205 12.0 17.0 0.00 0.00 0.00 67 1012.2
20260501195228 56 201 15.0 19.0 0.00 0.00 0.00 68 1012.2
20260501194725 55 206 14.0 18.0 0.00 0.00 0.00 68 1012.2
20260501194220 56 202 15.0 18.0 0.00 0.00 0.00 68 1012.2
20260501193717 55 190 12.0 17.0 0.00 0.00 0.00 69 1012.1
20260501193216 56 221 9.0 18.0 0.00 0.00 0.00 69 1012.1
20260501192713 55 220 15.0 18.0 0.00 0.00 0.00 69 1012.3
20260501192210 55 209 17.0 18.0 0.00 0.00 0.00 69 1012.3
20260501191707 56 204 13.0 18.0 0.00 0.00 0.00 70 1012.4
20260501191205 56 208 13.0 16.0 0.00 0.00 0.00 67 1012.5
20260501190701 56 215 7.0 16.0 0.00 0.00 0.00 67 1012.6
20260501190156 59 197 11.0 17.0 0.00 0.00 0.00 65 1012.7
20260501185652 60 210 8.0 13.0 0.00 0.00 0.00 55 1012.5
20260501185148 61 215 4.0 8.0 0.00 0.00 0.00 50 1012.4
20260501184645 60 209 6.0 8.0 0.00 0.00 0.00 51 1012.6
20260501184145 60 224 4.0 7.0 0.00 0.00 0.00 51 1012.6
20260501183642 60 218 5.0 8.0 0.00 0.00 0.00 58 1012.5
20260501183138 58 212 6.0 10.0 0.00 0.00 0.00 61 1013.0
20260501182635 57 217 8.0 10.0 0.00 0.00 0.00 59 1012.8
20260501182131 58 218 8.0 10.0 0.00 0.00 0.00 60 1012.9
20260501181629 57 213 9.0 13.0 0.00 0.00 0.00 64 1013.1
20260501181125 57 204 8.0 13.0 0.00 0.00 0.00 61 1013.0
20260501180624 57 206 9.0 14.0 0.00 0.00 0.00 60 1012.9
20260501180119 57 225 9.0 13.0 0.00 0.00 0.00 62 1013.0
20260501175617 58 220 9.0 13.0 0.00 0.00 0.00 59 1012.8
20260501175113 58 215 9.0 10.0 0.00 0.00 0.00 63 1012.8
20260501174610 57 216 9.0 14.0 0.00 0.00 0.00 63 1013.1
20260501174108 57 225 13.0 14.0 0.00 0.00 0.00 63 1013.1
20260501173605 57 213 11.0 17.0 0.00 0.00 0.00 61 1012.9
20260501173101 55 222 12.0 15.0 0.00 0.00 0.00 67 1013.0
20260501172557 57 201 11.0 16.0 0.00 0.00 0.00 63 1013.1
20260501172053 56 216 8.0 14.0 0.00 0.00 0.00 62 1013.2
20260501171549 55 245 10.0 15.0 0.00 0.00 0.00 66 1013.2
20260501171046 55 209 11.0 16.0 0.00 0.00 0.00 68 1013.4
20260501170543 55 219 9.0 17.0 0.00 0.00 0.00 67 1013.1
20260501170040 55 203 13.0 17.0 0.00 0.00 0.00 65 1013.2
20260501165538 55 192 12.0 17.0 0.00 0.00 0.00 66 1013.4
20260501165035 55 232 14.0 21.0 0.00 0.00 0.00 66 1013.1
20260501164532 55 209 14.0 21.0 0.00 0.00 0.00 66 1013.0
20260501164029 55 225 14.0 19.0 0.00 0.00 0.00 63 1013.3
20260501163526 55 250 11.0 21.0 0.00 0.00 0.00 67 1013.2
20260501163022 55 227 9.0 19.0 0.00 0.00 0.00 64 1013.3
20260501162519 56 236 9.0 13.0 0.00 0.00 0.00 62 1013.4
20260501162016 56 219 7.0 10.0 0.00 0.00 0.00 63 1013.5
20260501161513 54 224 6.0 19.0 0.00 0.00 0.00 62 1013.6
20260501161009 56 213 11.0 13.0 0.00 0.00 0.00 63 1013.6
20260501160507 57 207 6.0 11.0 0.00 0.00 0.00 49 1013.6
20260501160004 59 252 9.0 11.0 0.00 0.00 0.00 40 1013.9
20260501155500 58 216 2.0 8.0 0.00 0.00 0.00 38 1013.8
20260501154957 58 211 4.0 8.0 0.00 0.00 0.00 39 1013.9